Location: Innsbruck
(47.2657°N, 11.3914°E)
Time: 10:20:27
(UTC+02:00)

Envisat - Pass Details

Date: 03 October 2021
Orbit: 764 x 766 km, 98.2° (Epoch: 25 October)

Event Time Altitude Azimuth Distance (km) Brightness Sun altitude
Rises 05:58:30 0° 19° (NNE) 3,243 6.6 -14.0°
Reaches altitude 10° 06:00:55 10° 25° (NNE) 2,312 6.0 -13.5°
Maximum altitude 06:05:48 45° 98° (E) 1,035 4.2 -12.7°
Drops below altitude 10° 06:10:38 10° 171° (S) 2,294 5.5 -11.9°
Sets 06:13:01 0° 178° (S) 3,216 6.2 -11.5°
